Location: Prescott
(34.5400°N, 112.4680°W)
Time: 16:15:46
(UTC-07:00)

Amateur Radio Satellites - All Passes

Search period start: 21 December 2014 15:45
Search period end: 22 December 2014 15:45
Location: Prescott, 34.5400°N, 112.4680°W

Satellite Date Start Highest point End Downlink Frequencies (MHz)
Time Altitude Azimuth
GONETS M04 21 Dec 15:57:55 16:05:03 27° 72° (ENE) 16:12:05
AUBIESAT-1 21 Dec 16:08:51 16:10:03 11° 301° (WNW) 16:11:13 437.475
JAS-2 21 Dec 16:11:05 16:18:18 46° 71° (ENE) 16:24:57 435.910
MOZHAYETS 4 21 Dec 16:16:43 16:18:45 13° 92° (E) 16:20:47
AIST 1 21 Dec 16:17:56 16:22:04 43° 92° (E) 16:26:12
JUGNU 21 Dec 16:23:31 16:25:15 11° 195° (SSW) 16:26:59 437.505
STARS 21 Dec 16:29:48 16:32:42 17° 292° (WNW) 16:35:37 437.465
AO-7 21 Dec 16:35:23 16:43:22 51° 258° (WSW) 16:51:27 29.400- 29.500
CUTE-I 21 Dec 16:36:02 16:37:23 11° 62° (ENE) 16:38:43 437.470
RS-15 21 Dec 17:02:23 17:04:48 11° 2° (N) 17:07:13 29.354- 29.394
SRMSAT 21 Dec 17:28:09 17:30:46 13° 193° (SSW) 17:33:24 437.500
Cubesat XI-IV 21 Dec 17:38:41 17:43:47 48° 72° (ENE) 17:48:54 437.490
MOZHAYETS 4 21 Dec 17:51:46 17:56:13 49° 286° (WNW) 18:00:38
GONETS M04 21 Dec 17:53:47 18:02:14 57° 270° (W) 18:10:38
MaSat-1 21 Dec 17:54:42 17:56:03 14° 62° (ENE) 17:57:26 437.345
JAS-2 21 Dec 17:56:37 18:03:17 32° 263° (W) 18:09:34 435.910
AIST 1 21 Dec 17:57:56 17:59:55 13° 287° (WNW) 18:01:54
PRISM 21 Dec 18:11:22 18:15:04 31° 98° (E) 18:18:44 437.425
CUTE-I 21 Dec 18:11:22 18:16:41 82° 257° (WSW) 18:22:02 437.470
STRAND 1 21 Dec 18:19:21 18:22:35 17° 94° (E) 18:25:49 437.568
HO-68 21 Dec 18:55:43 18:59:23 15° 57° (ENE) 19:03:02 435.675
ISS 21 Dec 19:04:51 19:06:01 11° 26° (NNE) 19:07:11 145.825
DANDE 21 Dec 19:10:50 19:14:53 14° 67° (ENE) 19:19:04 436.750
RS-15 21 Dec 19:14:34 19:23:22 25° 38° (NE) 19:32:23 29.354- 29.394
CUBESAT XI-V 21 Dec 19:17:55 19:22:32 88° 284° (WNW) 19:27:07 437.345
Cubesat XI-IV 21 Dec 19:20:38 19:24:04 17° 266° (W) 19:27:32 437.490
MaSat-1 21 Dec 19:28:13 19:29:06 11° 253° (WSW) 19:30:00 437.345
BRITE-PL 21 Dec 19:28:52 19:29:48 11° 66° (ENE) 19:30:44 437.365/2234.400
PRISM 21 Dec 19:47:39 19:50:19 17° 292° (WNW) 19:52:59 437.425
GOMX 1 21 Dec 19:48:16 19:50:06 13° 67° (ENE) 19:51:56 467.674
CANX-2 21 Dec 19:53:15 19:56:34 22° 70° (ENE) 19:59:54 2200.000
CUSAT 1 21 Dec 19:53:59 20:01:12 35° 75° (ENE) 20:08:47 437.405
STRAND 1 21 Dec 19:57:06 20:01:57 46° 288° (WNW) 20:06:47 437.568
DOVE 4 21 Dec 20:07:11 20:09:37 15° 68° (ENE) 20:12:04 437.250
COMPASS 1 21 Dec 20:11:24 20:14:45 23° 70° (ENE) 20:18:08 437.405
SEEDS 21 Dec 20:18:10 20:21:59 34° 72° (ENE) 20:25:50 437.485
CUTE 1.7 + AOD 2 21 Dec 20:23:01 20:27:05 46° 74° (ENE) 20:31:11 437.475
DELFI C3 21 Dec 20:23:23 20:23:50 10° 66° (ENE) 20:24:17 145.870
CINEMA 3 21 Dec 20:23:37 20:25:42 14° 67° (ENE) 20:27:49 145.822/145.860
HO-68 21 Dec 20:38:52 20:46:04 88° 74° (ENE) 20:53:17 435.675
ISS 21 Dec 20:39:46 20:43:02 84° 42° (NE) 20:46:17 145.825
DX 1 21 Dec 20:44:40 20:47:46 20° 68° (ENE) 20:50:53 434.975-435.025
DANDE 21 Dec 20:51:10 20:59:14 76° 81° (E) 21:07:56 436.750
SO-50 21 Dec 20:54:54 20:59:23 89° 118° (ESE) 21:04:02 436.795
Oscar 11 21 Dec 21:03:47 21:07:51 41° 73° (ENE) 21:11:56 145.826/435.025
BRITE-PL 21 Dec 21:03:50 21:07:54 48° 260° (W) 21:11:54 437.365/2234.400
AAUSAT CUBESAT 2 21 Dec 21:09:41 21:13:52 76° 258° (WSW) 21:18:07 437.432
UKube-1 21 Dec 21:13:13 21:17:15 40° 73° (ENE) 21:21:19 .
GOMX 1 21 Dec 21:23:56 21:27:51 40° 261° (W) 21:31:47 467.674
RS-15 21 Dec 21:26:04 21:37:29 86° 62° (ENE) 21:49:25 29.354- 29.394
CANX-2 21 Dec 21:28:50 21:32:21 25° 264° (W) 21:35:53 2200.000
CUBEBUG 2 21 Dec 21:32:46 21:36:49 54° 75° (ENE) 21:40:59 437.445
CUSAT 1 21 Dec 21:36:40 21:44:21 49° 268° (W) 21:52:22 437.405
ZACube-1 21 Dec 21:37:43 21:41:40 43° 74° (ENE) 21:45:42 437.345
DOVE 4 21 Dec 21:43:21 21:47:06 33° 262° (W) 21:50:53 437.250
VELOX 1 21 Dec 21:44:19 21:48:07 29° 71° (ENE) 21:51:56 145.980
COMPASS 1 21 Dec 21:46:59 21:50:21 23° 264° (W) 21:53:45 437.405
ESTCUBE 1 21 Dec 21:53:13 21:55:39 15° 66° (ENE) 21:58:05 437.505/2401.250
DELFI C3 21 Dec 21:54:33 21:58:34 54° 260° (W) 22:02:38 145.870
BEESAT 3 21 Dec 21:54:36 21:58:17 30° 55° (NE) 22:01:54 437.485
SEEDS 21 Dec 21:55:14 21:57:52 16° 266° (W) 22:00:32 437.485
50 SAT 21 Dec 21:55:49 21:59:20 30° 72° (ENE) 22:02:53 437.505
CINEMA 3 21 Dec 21:58:39 22:02:31 39° 262° (W) 22:06:30 145.822/145.860
CUTE 1.7 + AOD 2 21 Dec 22:01:37 22:03:13 12° 268° (W) 22:04:49 437.475
FUNcube-1 21 Dec 22:03:48 22:07:58 88° 258° (WSW) 22:12:14 145.935
UWE-3 21 Dec 22:08:04 22:12:11 63° 259° (W) 22:16:25 435.000/436.395/437.385
AIST 2 21 Dec 22:09:33 22:12:37 19° 51° (NE) 22:15:39 435.215
UNISAT 6 21 Dec 22:13:49 22:17:13 20° 94° (E) 22:20:37 437.425
DX 1 21 Dec 22:19:58 22:23:47 30° 262° (W) 22:27:37 434.975-435.025
POLYITAN 1 21 Dec 22:22:08 22:24:14 13° 93° (E) 22:26:20 437.675
NANOSAT C BR1 21 Dec 22:23:09 22:25:14 13° 93° (E) 22:27:19 145.865
AISAT 21 Dec 22:27:35 22:32:01 83° 258° (WSW) 22:36:26 437.250
HUMSAT D 21 Dec 22:27:52 22:31:59 79° 258° (WSW) 22:36:10 437.325/437.525
CUBEBUG 1 21 Dec 22:29:08 22:33:03 33° 72° (ENE) 22:36:57 437.445
HO-68 21 Dec 22:31:26 22:34:29 13° 269° (W) 22:37:32 435.675
BEESAT 2 21 Dec 22:35:22 22:39:34 77° 61° (ENE) 22:43:40 435.950
DANDE 21 Dec 22:36:17 22:42:04 22° 274° (W) 22:48:09 436.750
QB50P1 21 Dec 22:36:51 22:40:01 20° 95° (E) 22:43:10 145.935-145.965
SO-50 21 Dec 22:39:32 22:40:37 11° 316° (NW) 22:41:42 436.795
Oscar 11 21 Dec 22:41:59 22:44:10 14° 267° (W) 22:46:22 145.826/435.025
ANTELSAT 21 Dec 22:44:58 22:49:30 44° 99° (E) 22:53:59 437.575/2403.000
UKube-1 21 Dec 22:51:15 22:53:33 14° 266° (W) 22:55:51 .
YUBILEINY 21 Dec 22:59:54 23:06:58 29° 84° (E) 23:14:01 435.215
POPSAT HIP 1 21 Dec 23:04:58 23:09:03 44° 99° (E) 23:13:08 437.405
PCSat 21 Dec 23:12:26 23:17:51 66° 62° (ENE) 23:23:12 145.827
ZACube-1 21 Dec 23:16:39 23:18:15 12° 268° (W) 23:19:52 437.345
TIGRISAT 21 Dec 23:19:27 23:24:10 78° 284° (WNW) 23:28:52 435.000
VELOX 1 21 Dec 23:21:23 23:24:40 20° 264° (W) 23:27:58 145.980
TISAT 1 21 Dec 23:23:48 23:27:31 31° 72° (ENE) 23:31:14 437.305
BUGSAT 1 21 Dec 23:24:26 23:28:27 59° 101° (E) 23:32:29 437.445
ESTCUBE 1 21 Dec 23:27:45 23:32:06 46° 260° (W) 23:36:28 437.505/2401.250
SPROUT 21 Dec 23:31:30 23:35:25 36° 73° (ENE) 23:39:20 437.525
DUCHIFAT 1 21 Dec 23:32:06 23:36:22 85° 283° (WNW) 23:40:38 145.980
50 SAT 21 Dec 23:32:06 23:34:35 16° 266° (W) 23:37:05 437.505
BEESAT 3 21 Dec 23:33:12 23:36:14 20° 250° (WSW) 23:39:14 437.485
RS-15 21 Dec 23:40:50 23:48:31 21° 259° (WSW) 23:56:26 29.354- 29.394
O/OREOS (USA 219) 21 Dec 23:45:36 23:48:55 21° 101° (E) 23:52:15 437.305
QB50P2 21 Dec 23:46:48 23:50:59 54° 285° (WNW) 23:55:10 145.880/145.840
AIST 2 21 Dec 23:47:25 23:51:20 36° 247° (WSW) 23:55:12 435.215
UNISAT 6 21 Dec 23:49:45 23:54:02 35° 288° (WNW) 23:58:18 437.425
POLYITAN 1 21 Dec 23:56:16 00:00:19 42° 287° (WNW) 00:04:22 437.675
NANOSAT C BR1 21 Dec 23:57:14 00:01:14 41° 287° (WNW) 00:05:15 145.865
CUBEBUG 1 22 Dec 00:06:32 00:09:27 17° 265° (W) 00:12:22 437.445
QB50P1 22 Dec 00:12:13 00:15:51 28° 289° (WNW) 00:19:29 145.935-145.965
M-CUBED/EXP-1 PRIME 22 Dec 00:12:17 00:13:21 11° 58° (ENE) 00:14:25 437.505
ANTELSAT 22 Dec 00:22:57 00:25:53 17° 293° (WNW) 00:28:49 437.575/2403.000
POPSAT HIP 1 22 Dec 00:42:27 00:44:32 13° 293° (WNW) 00:46:37 437.405
SWISSCUBE 22 Dec 00:48:39 00:53:13 46° 73° (ENE) 00:57:47 437.505
ITUPSAT 1 22 Dec 00:49:47 00:54:18 42° 72° (ENE) 00:58:50 437.325
Oscar 19 22 Dec 00:54:40 00:57:50 16° 93° (E) 01:01:00 437.125/150
YUBILEINY 22 Dec 00:54:46 01:03:13 53° 281° (W) 01:11:42 435.215
PCSat 22 Dec 00:58:09 01:00:36 13° 257° (WSW) 01:03:03 145.827
TISAT 1 22 Dec 01:00:38 01:03:22 17° 265° (W) 01:06:06 437.305
SPROUT 22 Dec 01:09:05 01:11:35 15° 266° (W) 01:14:06 437.525
BEESAT 22 Dec 01:13:05 01:17:52 79° 76° (ENE) 01:22:40 436.000
AUBIESAT-1 22 Dec 01:16:17 01:20:52 46° 68° (ENE) 01:25:32 437.475
O/OREOS (USA 219) 22 Dec 01:24:15 01:28:06 28° 296° (WNW) 01:31:59 437.305
M-CUBED/EXP-1 PRIME 22 Dec 01:42:46 01:47:35 85° 253° (WSW) 01:52:32 437.505
STARS 22 Dec 01:47:01 01:50:19 21° 69° (ENE) 01:53:37 437.465
KKS-1 22 Dec 01:53:05 01:57:11 38° 72° (ENE) 02:01:17 437.445
VERMONT LUNAR 22 Dec 02:00:55 02:04:16 43° 150° (SSE) 02:07:39 437.305
PHONESAT 2.4 22 Dec 02:22:05 02:25:30 40° 149° (SSE) 02:28:55 2401.200-2431.200
SWISSCUBE 22 Dec 02:28:29 02:31:15 15° 267° (W) 02:34:01 437.505
ITUPSAT 1 22 Dec 02:29:19 02:32:20 17° 266° (W) 02:35:22 437.325
Oscar 19 22 Dec 02:32:23 02:37:24 50° 287° (WNW) 02:42:23 437.125/150
ITAMSAT 1 22 Dec 02:51:21 02:56:33 87° 103° (ESE) 03:01:44 435.822/435.867
AUBIESAT-1 22 Dec 02:52:47 02:55:56 17° 262° (W) 02:59:08 437.475
Gurwin Techsat 1B 22 Dec 02:55:30 03:00:44 58° 101° (E) 03:05:56 435.225
HORYU 2 22 Dec 03:19:24 03:23:33 35° 98° (E) 03:27:41 437.375
STARS 22 Dec 03:22:51 03:26:36 28° 263° (W) 03:30:23 437.465
KKS-1 22 Dec 03:31:19 03:33:56 15° 266° (W) 03:36:34 437.445
VERMONT LUNAR 22 Dec 03:39:12 03:42:36 44° 345° (NNW) 03:46:00 437.305
PHONESAT 2.4 22 Dec 04:00:39 04:04:10 47° 344° (NNW) 04:07:41 2401.200-2431.200
AIST 1 22 Dec 04:06:11 04:10:26 71° 265° (W) 04:14:39
Gurwin Techsat 1B 22 Dec 04:37:08 04:40:09 16° 296° (WNW) 04:43:10 435.225
AO-7 22 Dec 04:40:32 04:48:54 71° 105° (ESE) 04:57:12 29.400- 29.500
MOZHAYETS 4 22 Dec 04:49:50 04:54:29 82° 258° (WSW) 04:59:09
GONETS M04 22 Dec 04:54:17 05:02:00 35° 86° (E) 05:09:42
HORYU 2 22 Dec 04:56:51 04:59:55 18° 292° (WNW) 05:02:58 437.375
PRISM 22 Dec 04:59:50 05:02:28 16° 68° (ENE) 05:05:06 437.425
JAS-2 22 Dec 05:10:18 05:15:30 44° 98° (E) 05:20:24 435.910
VERMONT LUNAR 22 Dec 05:18:13 05:21:22 29° 2° (N) 05:24:30 437.305
SO-50 22 Dec 05:29:56 05:34:20 32° 54° (NE) 05:38:44 436.795
STRAND 1 22 Dec 05:32:12 05:35:35 18° 66° (ENE) 05:38:59 437.568
PHONESAT 2.4 22 Dec 05:40:03 05:43:18 30° 1° (N) 05:46:33 2401.200-2431.200
Cubesat XI-IV 22 Dec 06:00:05 06:04:28 26° 96° (E) 06:08:50 437.490
CUBESAT XI-V 22 Dec 06:17:45 06:22:21 59° 75° (ENE) 06:26:56 437.345
CUTE-I 22 Dec 06:32:12 06:37:25 54° 101° (E) 06:42:35 437.470
PRISM 22 Dec 06:33:49 06:37:41 35° 261° (W) 06:41:34 437.425
AO-7 22 Dec 06:34:40 06:40:53 24° 302° (WNW) 06:47:05 29.400- 29.500
GONETS M04 22 Dec 06:50:13 06:58:31 44° 283° (WNW) 07:06:51
JAS-2 22 Dec 06:56:32 07:00:10 18° 296° (WNW) 07:03:41 435.910
VERMONT LUNAR 22 Dec 06:56:36 07:00:04 55° 19° (NNE) 07:03:32 437.305
STRAND 1 22 Dec 07:09:30 07:14:22 46° 260° (W) 07:19:16 437.568
SO-50 22 Dec 07:10:41 07:14:44 26° 249° (WSW) 07:18:47 436.795
PHONESAT 2.4 22 Dec 07:18:50 07:22:24 53° 18° (NNE) 07:25:57 2401.200-2431.200
Cubesat XI-IV 22 Dec 07:39:49 07:44:31 33° 290° (WNW) 07:49:13 437.490
CUBESAT XI-V 22 Dec 07:58:56 08:00:05 11° 269° (W) 08:01:15 437.345
HO-68 22 Dec 08:12:06 08:17:03 20° 94° (E) 08:21:57 435.675
CUTE-I 22 Dec 08:13:43 08:16:59 17° 295° (WNW) 08:20:15 437.470
CUTE 1.7 + AOD 2 22 Dec 08:14:54 08:15:45 11° 92° (E) 08:16:36 437.475
VERMONT LUNAR 22 Dec 08:35:09 08:38:16 30° 213° (SSW) 08:41:23 437.305
MaSat-1 22 Dec 08:40:34 08:42:48 45° 294° (WNW) 08:44:58 437.345
AAUSAT CUBESAT 2 22 Dec 08:57:34 09:00:53 22° 95° (E) 09:04:10 437.432
PHONESAT 2.4 22 Dec 08:57:42 09:00:59 32° 213° (SSW) 09:04:16 2401.200-2431.200
CUSAT 1 22 Dec 09:03:13 09:06:10 24° 86° (E) 09:09:51 437.405
BRITE-PL 22 Dec 09:10:36 09:15:26 65° 101° (E) 09:20:38 437.365/2234.400
UNISAT 6 22 Dec 09:11:57 09:13:13 11° 64° (ENE) 09:14:29 437.425
CANX-2 22 Dec 09:17:04 09:21:23 72° 101° (ESE) 09:25:40 2200.000
GOMX 1 22 Dec 09:27:48 09:32:42 70° 101° (ESE) 09:37:54 467.674
CUBEBUG 2 22 Dec 09:28:22 09:31:27 17° 94° (E) 09:34:33 437.445
QB50P1 22 Dec 09:29:40 09:29:58 10° 65° (ENE) 09:30:16 145.935-145.965
ZACube-1 22 Dec 09:31:51 09:33:45 12° 92° (E) 09:35:40 437.345
COMPASS 1 22 Dec 09:33:32 09:37:47 73° 101° (E) 09:42:00 437.405
DELFI C3 22 Dec 09:39:10 09:42:39 26° 96° (E) 09:46:05 145.870
RS-15 22 Dec 09:39:56 09:45:03 15° 99° (E) 09:50:08 29.354- 29.394
ANTELSAT 22 Dec 09:41:29 09:45:02 25° 70° (ENE) 09:48:40 437.575/2403.000
SEEDS 22 Dec 09:41:41 09:45:58 73° 283° (WNW) 09:50:13 437.485
DOVE 4 22 Dec 09:44:33 09:49:27 77° 102° (ESE) 09:54:37 437.250
CUTE 1.7 + AOD 2 22 Dec 09:47:44 09:51:56 52° 285° (WNW) 09:56:06 437.475
POPSAT HIP 1 22 Dec 09:55:28 09:58:40 22° 70° (ENE) 10:01:53 437.405
CINEMA 3 22 Dec 09:56:11 10:00:58 60° 101° (E) 10:05:52 145.822/145.860
FUNcube-1 22 Dec 09:56:25 10:00:08 24° 96° (E) 10:03:51 145.935
HO-68 22 Dec 09:58:06 10:05:09 65° 289° (WNW) 10:12:10 435.675
O/OREOS (USA 219) 22 Dec 09:58:19 10:01:59 24° 63° (ENE) 10:05:38 437.305
UWE-3 22 Dec 10:01:37 10:05:51 34° 98° (E) 10:10:05 435.000/436.395/437.385
DANDE 22 Dec 10:03:32 10:06:53 66° 281° (W) 10:11:22 436.750
DX 1 22 Dec 10:11:21 10:15:38 58° 101° (E) 10:19:55 434.975-435.025
BUGSAT 1 22 Dec 10:11:58 10:15:22 26° 71° (ENE) 10:18:44 437.445
TIGRISAT 22 Dec 10:14:56 10:19:11 60° 75° (ENE) 10:23:34 435.000
HUMSAT D 22 Dec 10:16:38 10:20:03 22° 96° (E) 10:23:28 437.325/437.525
DUCHIFAT 1 22 Dec 10:21:34 10:25:33 43° 74° (ENE) 10:29:32 145.980
AISAT 22 Dec 10:22:54 10:26:32 24° 96° (E) 10:30:10 437.250
Oscar 11 22 Dec 10:30:34 10:34:51 57° 285° (WNW) 10:39:06 145.826/435.025
AAUSAT CUBESAT 2 22 Dec 10:33:00 10:36:27 25° 289° (WNW) 10:39:52 437.432
QB50P2 22 Dec 10:36:20 10:40:31 70° 76° (ENE) 10:44:44 145.880/145.840
UKube-1 22 Dec 10:40:19 10:44:37 64° 285° (WNW) 10:48:53 .
JUGNU 22 Dec 10:42:44 10:45:21 13° 167° (SSE) 10:47:58 437.505
UNISAT 6 22 Dec 10:45:09 10:49:25 57° 260° (W) 10:53:49 437.425
POLYITAN 1 22 Dec 10:45:52 10:50:04 88° 257° (WSW) 10:54:18 437.675
NANOSAT C BR1 22 Dec 10:46:20 10:50:32 89° 255° (WSW) 10:54:45 145.865
CUSAT 1 22 Dec 10:46:47 10:49:20 17° 294° (WNW) 10:52:22 437.405
BRITE-PL 22 Dec 10:51:28 10:53:29 13° 293° (WNW) 10:55:34 437.365/2234.400
QB50P1 22 Dec 11:01:11 11:05:19 57° 259° (W) 11:09:28 145.935-145.965
CUBEBUG 2 22 Dec 11:03:51 11:08:13 40° 287° (WNW) 11:12:39 437.445
ZACube-1 22 Dec 11:05:54 11:10:20 52° 285° (WNW) 11:14:48 437.345
GOMX 1 22 Dec 11:08:36 11:10:18 12° 294° (WNW) 11:12:02 467.674
YUBILEINY 22 Dec 11:08:56 11:17:36 67° 81° (E) 11:26:13 435.215
50 SAT 22 Dec 11:14:01 11:18:11 89° 102° (ESE) 11:22:21 437.505
VELOX 1 22 Dec 11:14:24 11:18:50 83° 284° (WNW) 11:23:16 145.980
DELFI C3 22 Dec 11:14:44 11:17:42 20° 290° (WNW) 11:20:40 145.870
ANTELSAT 22 Dec 11:18:12 11:21:43 24° 265° (W) 11:25:20 437.575/2403.000
ESTCUBE 1 22 Dec 11:24:07 11:28:27 47° 100° (E) 11:32:45 437.505/2401.250
DOVE 4 22 Dec 11:25:45 11:26:38 10° 295° (WNW) 11:27:31 437.250
POPSAT HIP 1 22 Dec 11:30:56 11:34:25 25° 263° (W) 11:37:54 437.405
FUNcube-1 22 Dec 11:32:33 11:36:22 27° 289° (WNW) 11:40:12 145.935
CINEMA 3 22 Dec 11:35:27 11:37:39 13° 294° (WNW) 11:39:52 145.822/145.860
O/OREOS (USA 219) 22 Dec 11:37:30 11:41:17 26° 257° (WSW) 11:45:04 437.305
UWE-3 22 Dec 11:38:45 11:42:07 20° 291° (WNW) 11:45:30 435.000/436.395/437.385
ISS 22 Dec 11:43:07 11:45:01 15° 127° (SE) 11:46:55 145.825
RS-15 22 Dec 11:44:37 11:55:35 81° 116° (ESE) 12:06:32 29.354- 29.394
BUGSAT 1 22 Dec 11:47:50 11:50:48 19° 264° (W) 11:53:46 437.445
BEESAT 3 22 Dec 11:47:50 11:49:43 13° 108° (ESE) 11:51:36 437.485
DX 1 22 Dec 11:50:19 11:51:20 11° 295° (WNW) 11:52:22 434.975-435.025
SRMSAT 22 Dec 11:50:50 11:52:33 11° 165° (SSE) 11:54:16 437.500
HUMSAT D 22 Dec 11:52:09 11:55:45 26° 289° (WNW) 11:59:21 437.325/437.525
CUBEBUG 1 22 Dec 11:57:29 12:01:48 72° 284° (WNW) 12:06:07 437.445
AISAT 22 Dec 11:59:26 12:03:03 25° 290° (WNW) 12:06:39 437.250
DUCHIFAT 1 22 Dec 11:59:58 12:01:35 12° 267° (W) 12:03:13 145.980
Oscar 19 22 Dec 12:08:29 12:11:46 17° 65° (ENE) 12:15:04 437.125/150
PCSat 22 Dec 12:10:28 12:13:01 14° 103° (ESE) 12:15:34 145.827
BEESAT 2 22 Dec 12:27:30 12:31:12 34° 113° (ESE) 12:34:59 435.950
JUGNU 22 Dec 12:29:36 12:33:39 19° 176° (S) 12:37:43 437.505
TISAT 1 22 Dec 12:47:26 12:51:40 82° 283° (WNW) 12:55:54 437.305
SWISSCUBE 22 Dec 12:54:05 12:56:54 16° 94° (E) 12:59:43 437.505
ITUPSAT 1 22 Dec 12:55:37 12:58:12 14° 93° (E) 13:00:46 437.325
SPROUT 22 Dec 12:57:25 13:01:41 67° 284° (WNW) 13:05:57 437.525
ESTCUBE 1 22 Dec 13:02:37 13:04:53 14° 294° (WNW) 13:07:08 437.505/2401.250
YUBILEINY 22 Dec 13:07:26 13:13:31 22° 278° (W) 13:19:38 435.215
BEESAT 22 Dec 13:17:40 13:21:40 26° 97° (E) 13:25:38 436.000
ISS 22 Dec 13:18:10 13:21:19 41° 321° (NW) 13:24:28 145.825
BEESAT 3 22 Dec 13:23:33 13:27:27 44° 302° (WNW) 13:31:25 437.485
SRMSAT 22 Dec 13:37:05 13:41:00 18° 174° (S) 13:44:54 437.500
AIST 2 22 Dec 13:41:56 13:46:08 73° 299° (WNW) 13:50:25 435.215
Oscar 19 22 Dec 13:45:43 13:50:40 49° 260° (W) 13:55:40 437.125/150
AO-7 22 Dec 13:48:53 13:52:14 13° 51° (NE) 13:55:35 29.400- 29.500
PCSat 22 Dec 13:50:25 13:55:47 65° 298° (WNW) 14:01:11 145.827
RS-15 22 Dec 14:00:15 14:09:10 28° 319° (NW) 14:18:13 29.354- 29.394
ITAMSAT 1 22 Dec 14:05:48 14:10:59 88° 257° (WSW) 14:16:11 435.822/435.867
BEESAT 2 22 Dec 14:06:35 14:09:32 19° 309° (NW) 14:12:31 435.950
Gurwin Techsat 1B 22 Dec 14:13:02 14:18:16 65° 74° (ENE) 14:23:31 435.225
HORYU 2 22 Dec 14:15:11 14:18:37 22° 69° (ENE) 14:22:05 437.375
JUGNU 22 Dec 14:18:10 14:22:00 18° 187° (S) 14:25:50 437.505
SWISSCUBE 22 Dec 14:30:25 14:34:55 44° 287° (WNW) 14:39:24 437.505
ITUPSAT 1 22 Dec 14:31:43 14:36:17 47° 287° (WNW) 14:40:50 437.325
AUBIESAT-1 22 Dec 14:37:47 14:41:54 60° 105° (ESE) 14:45:38 437.475
BEESAT 22 Dec 14:55:27 14:59:23 26° 291° (WNW) 15:03:18 436.000
M-CUBED/EXP-1 PRIME 22 Dec 15:05:04 15:09:11 52° 291° (WNW) 15:12:55 437.505
GONETS M04 22 Dec 15:11:13 15:14:50 13° 64° (ENE) 15:18:25
STARS 22 Dec 15:15:39 15:20:05 69° 102° (ESE) 15:24:30 437.465
JAS-2 22 Dec 15:19:11 15:23:53 18° 64° (ENE) 15:28:21 435.910
KKS-1 22 Dec 15:24:02 15:28:27 60° 285° (WNW) 15:32:51 437.445
SRMSAT 22 Dec 15:25:31 15:29:30 18° 185° (S) 15:33:27 437.500
